0 HST 1 20580U 90037B 25261.84133014 .00006172 00000-0 22256-3 0 9990 2 20580 28.4672 129.6402 0002530 25.9320 334.1401 15.26365194747007 0 ISS (ZARYA) 1 25544U 98067A 25262.12181519 .00014081 00000-0 25067-3 0 9992 2 25544 51.6335 201.4846 0004394 354.7362 5.3580 15.50399466529735 0 CXO 1 25867U 99040B 25264.64061064 .00000851 00000-0 00000-0 0 9990 2 25867 51.4661 125.6055 8273394 310.4746 0.4854 0.37809678 16307